Time,TemperatureF,DewpointF,PressureIn,WindDirection,WindDirectionDegrees,WindSpeedMPH,WindSpeedGustMPH,Humidity,HourlyPrecipIn,Conditions,Clouds,dailyrainin,SoftwareType,DateUTC
2013-02-08 00:01:00,47.0,43.0,29.84,ESE,118,0.0,-999.0,85,-99.99,,,-99.99,,2013-02-08 08:01:00,
2013-02-08 00:11:00,47.0,43.0,29.84,ESE,118,0.0,-999.0,85,-99.99,,,-99.99,,2013-02-08 08:11:00,
2013-02-08 00:21:00,47.0,43.0,29.84,ESE,118,0.0,-999.0,85,-99.99,,,-99.99,,2013-02-08 08:21:00,
2013-02-08 00:32:00,47.0,43.0,29.84,ESE,118,0.0,-999.0,85,-99.99,,,-99.99,,2013-02-08 08:32:00,
2013-02-08 00:41:00,47.0,43.0,29.84,ESE,118,0.0,-999.0,85,-99.99,,,-99.99,,2013-02-08 08:41:00,
2013-02-08 00:52:00,47.0,43.0,29.84,ESE,118,0.0,-999.0,85,-99.99,,,-99.99,,2013-02-08 08:52:00,
2013-02-08 01:02:00,46.0,42.0,29.83,ESE,118,0.0,-999.0,85,-99.99,,,-99.99,,2013-02-08 09:02:00,
2013-02-08 01:11:00,46.0,42.0,29.83,ESE,118,0.0,-999.0,85,-99.99,,,-99.99,,2013-02-08 09:11:00,
2013-02-08 01:21:00,46.0,42.0,29.83,ESE,118,0.0,-999.0,87,-99.99,,,-99.99,,2013-02-08 09:21:00,
2013-02-08 01:31:00,46.0,42.0,29.84,ESE,118,0.0,-999.0,86,-99.99,,,-99.99,,2013-02-08 09:31:00,
2013-02-08 01:41:00,46.0,42.0,29.84,ESE,118,0.0,-999.0,86,-99.99,,,-99.99,,2013-02-08 09:41:00,
2013-02-08 01:51:00,46.0,42.0,29.83,ESE,118,0.0,-999.0,86,-99.99,,,-99.99,,2013-02-08 09:51:00,
2013-02-08 02:01:00,46.0,42.0,29.83,ESE,118,0.0,-999.0,86,-99.99,,,-99.99,,2013-02-08 10:01:00,
2013-02-08 02:11:00,46.0,42.0,29.83,ESE,118,0.0,-999.0,86,-99.99,,,-99.99,,2013-02-08 10:11:00,
2013-02-08 02:21:00,46.0,42.0,29.83,ESE,118,0.0,-999.0,86,-99.99,,,-99.99,,2013-02-08 10:21:00,
2013-02-08 02:31:00,46.0,42.0,29.83,ESE,118,0.0,-999.0,86,-99.99,,,-99.99,,2013-02-08 10:31:00,
2013-02-08 02:42:00,46.0,42.0,29.83,ESE,118,0.0,-999.0,86,-99.99,,,-99.99,,2013-02-08 10:42:00,
2013-02-08 02:51:00,46.0,42.0,29.83,ESE,118,0.0,-999.0,85,-99.99,,,-99.99,,2013-02-08 10:51:00,
2013-02-08 03:01:00,46.0,41.0,29.82,ESE,118,0.0,-999.0,84,-99.99,,,-99.99,,2013-02-08 11:01:00,
2013-02-08 03:11:00,46.0,41.0,29.82,ESE,118,0.0,-999.0,84,-99.99,,,-99.99,,2013-02-08 11:11:00,
2013-02-08 03:21:00,45.0,39.0,29.82,ESE,118,0.0,-999.0,80,-99.99,,,-99.99,,2013-02-08 11:21:00,
2013-02-08 03:32:00,45.0,39.0,29.82,ESE,118,0.0,-999.0,78,-99.99,,,-99.99,,2013-02-08 11:32:00,
2013-02-08 03:41:00,45.0,39.0,29.82,ESE,118,0.0,-999.0,78,-99.99,,,-99.99,,2013-02-08 11:41:00,
2013-02-08 03:52:00,45.0,39.0,29.82,ESE,118,0.0,-999.0,80,-99.99,,,-99.99,,2013-02-08 11:52:00,
2013-02-08 04:01:00,44.0,38.0,29.82,ESE,118,0.0,-999.0,80,-99.99,,,-99.99,,2013-02-08 12:01:00,
2013-02-08 04:11:00,44.0,38.0,29.82,ESE,118,0.0,-999.0,80,-99.99,,,-99.99,,2013-02-08 12:11:00,
2013-02-08 04:21:00,44.0,38.0,29.82,ESE,118,0.0,-999.0,79,-99.99,,,-99.99,,2013-02-08 12:21:00,
2013-02-08 04:32:00,43.0,37.0,29.82,ESE,118,0.0,-999.0,80,-99.99,,,-99.99,,2013-02-08 12:32:00,
2013-02-08 04:41:00,43.0,37.0,29.82,ESE,118,0.0,-999.0,80,-99.99,,,-99.99,,2013-02-08 12:41:00,
2013-02-08 04:52:00,42.0,37.0,29.82,ESE,118,0.0,-999.0,81,-99.99,,,-99.99,,2013-02-08 12:52:00,
2013-02-08 05:01:00,41.0,36.0,29.81,ESE,118,0.0,-999.0,82,-99.99,,,-99.99,,2013-02-08 13:01:00,
2013-02-08 05:11:00,41.0,36.0,29.81,ESE,118,0.0,-999.0,82,-99.99,,,-99.99,,2013-02-08 13:11:00,
2013-02-08 05:21:00,41.0,36.0,29.82,ESE,118,0.0,-999.0,82,-99.99,,,-99.99,,2013-02-08 13:21:00,
2013-02-08 05:32:00,40.0,35.0,29.82,ESE,118,0.0,-999.0,83,-99.99,,,-99.99,,2013-02-08 13:32:00,
2013-02-08 05:42:00,40.0,35.0,29.82,ESE,118,0.0,-999.0,83,-99.99,,,-99.99,,2013-02-08 13:42:00,
2013-02-08 05:51:00,40.0,35.0,29.82,ESE,118,0.0,-999.0,83,-99.99,,,-99.99,,2013-02-08 13:51:00,
2013-02-08 06:01:00,40.0,36.0,29.83,ESE,118,0.0,-999.0,84,-99.99,,,-99.99,,2013-02-08 14:01:00,
2013-02-08 06:11:00,40.0,36.0,29.83,ESE,118,0.0,-999.0,84,-99.99,,,-99.99,,2013-02-08 14:11:00,
2013-02-08 06:21:00,40.0,36.0,29.82,WNW,286,0.0,-999.0,84,-99.99,,,-99.99,,2013-02-08 14:21:00,
2013-02-08 06:32:00,39.0,35.0,29.83,WNW,286,0.0,-999.0,84,-99.99,,,-99.99,,2013-02-08 14:32:00,
2013-02-08 06:41:00,39.0,35.0,29.83,WNW,286,0.0,-999.0,84,-99.99,,,-99.99,,2013-02-08 14:41:00,
2013-02-08 06:52:00,39.0,35.0,29.83,WNW,286,0.0,-999.0,84,-99.99,,,-99.99,,2013-02-08 14:52:00,
2013-02-08 07:01:00,39.0,35.0,29.83,WNW,286,0.0,-999.0,84,-99.99,,,-99.99,,2013-02-08 15:01:00,
2013-02-08 07:11:00,39.0,35.0,29.83,WNW,286,0.0,-999.0,84,-99.99,,,-99.99,,2013-02-08 15:11:00,
2013-02-08 07:21:00,39.0,34.0,29.83,WNW,286,0.0,-999.0,83,-99.99,,,-99.99,,2013-02-08 15:21:00,
2013-02-08 07:31:00,39.0,35.0,29.83,WNW,286,0.0,-999.0,84,-99.99,,,-99.99,,2013-02-08 15:31:00,
2013-02-08 07:42:00,39.0,35.0,29.83,WNW,286,0.0,-999.0,84,-99.99,,,-99.99,,2013-02-08 15:42:00,
2013-02-08 07:52:00,39.0,34.0,29.84,WNW,286,0.0,-999.0,83,-99.99,,,-99.99,,2013-02-08 15:52:00,
2013-02-08 08:01:00,39.0,35.0,29.84,WNW,286,0.0,-999.0,84,-99.99,,,-99.99,,2013-02-08 16:01:00,
2013-02-08 08:11:00,39.0,35.0,29.84,WNW,286,0.0,-999.0,84,-99.99,,,-99.99,,2013-02-08 16:11:00,
2013-02-08 08:21:00,40.0,36.0,29.84,WNW,286,0.0,-999.0,84,-99.99,,,-99.99,,2013-02-08 16:21:00,
2013-02-08 08:32:00,40.0,35.0,29.83,WNW,286,0.0,-999.0,83,-99.99,,,-99.99,,2013-02-08 16:32:00,
2013-02-08 08:41:00,40.0,35.0,29.83,WNW,286,0.0,-999.0,83,-99.99,,,-99.99,,2013-02-08 16:41:00,
2013-02-08 08:51:00,42.0,36.0,29.84,WNW,286,0.0,-999.0,80,-99.99,,,-99.99,,2013-02-08 16:51:00,
2013-02-08 09:01:00,45.0,38.0,29.83,NW,304,0.0,-999.0,76,-99.99,,,-99.99,,2013-02-08 17:01:00,
2013-02-08 09:11:00,45.0,38.0,29.83,NW,304,0.0,-999.0,76,-99.99,,,-99.99,,2013-02-08 17:11:00,
2013-02-08 09:21:00,45.0,38.0,29.83,NW,304,0.0,-999.0,76,-99.99,,,-99.99,,2013-02-08 17:21:00,
2013-02-08 09:31:00,47.0,38.0,29.83,North,10,0.0,-999.0,70,-99.99,,,-99.99,,2013-02-08 17:31:00,
2013-02-08 09:42:00,47.0,38.0,29.83,North,10,0.0,-999.0,70,-99.99,,,-99.99,,2013-02-08 17:42:00,
2013-02-08 09:52:00,51.0,39.0,29.83,NNE,32,0.0,-999.0,63,-99.99,,,-99.99,,2013-02-08 17:52:00,
2013-02-08 10:01:00,52.0,39.0,29.82,East,86,0.0,-999.0,61,-99.99,,,-99.99,,2013-02-08 18:01:00,
2013-02-08 10:11:00,52.0,39.0,29.82,East,86,0.0,-999.0,61,-99.99,,,-99.99,,2013-02-08 18:11:00,
2013-02-08 10:23:00,51.0,38.0,29.82,ENE,64,0.0,-999.0,61,-99.99,,,-99.99,,2013-02-08 18:23:00,
2013-02-08 10:32:00,51.0,38.0,29.82,ENE,64,0.0,-999.0,61,-99.99,,,-99.99,,2013-02-08 18:32:00,
2013-02-08 10:42:00,51.0,38.0,29.82,ENE,64,0.0,-999.0,61,-99.99,,,-99.99,,2013-02-08 18:42:00,
2013-02-08 10:52:00,52.0,37.0,29.81,NNE,15,1.0,-999.0,56,-99.99,,,-99.99,,2013-02-08 18:52:00,
2013-02-08 11:01:00,52.0,37.0,29.81,NNE,15,1.0,-999.0,56,-99.99,,,-99.99,,2013-02-08 19:01:00,
2013-02-08 11:11:00,52.0,37.0,29.81,NNE,15,1.0,-999.0,56,-99.99,,,-99.99,,2013-02-08 19:11:00,
2013-02-08 11:21:00,51.0,36.0,29.81,ENE,62,0.0,-999.0,57,-99.99,,,-99.99,,2013-02-08 19:21:00,
2013-02-08 11:32:00,53.0,37.0,29.80,NE,54,1.0,-999.0,54,-99.99,,,-99.99,,2013-02-08 19:32:00,
2013-02-08 11:42:00,53.0,37.0,29.80,NE,54,1.0,-999.0,54,-99.99,,,-99.99,,2013-02-08 19:42:00,
2013-02-08 11:52:00,54.0,38.0,29.79,NE,36,2.0,-999.0,55,-99.99,,,-99.99,,2013-02-08 19:52:00,
2013-02-08 12:01:00,54.0,38.0,29.79,NE,36,2.0,-999.0,55,-99.99,,,-99.99,,2013-02-08 20:01:00,
2013-02-08 12:11:00,54.0,38.0,29.79,NE,36,2.0,-999.0,55,-99.99,,,-99.99,,2013-02-08 20:11:00,
2013-02-08 12:21:00,54.0,37.0,29.78,ENE,71,2.0,-999.0,53,-99.99,,,-99.99,,2013-02-08 20:21:00,
2013-02-08 12:31:00,54.0,38.0,29.77,ESE,118,2.0,-999.0,55,-99.99,,,-99.99,,2013-02-08 20:31:00,
2013-02-08 12:41:00,54.0,38.0,29.77,ESE,118,2.0,-999.0,55,-99.99,,,-99.99,,2013-02-08 20:41:00,
2013-02-08 12:52:00,54.0,38.0,29.77,ESE,118,2.0,-999.0,55,-99.99,,,-99.99,,2013-02-08 20:52:00,
2013-02-08 13:01:00,53.0,39.0,29.76,ESE,121,2.0,-999.0,58,-99.99,,,-99.99,,2013-02-08 21:01:00,
2013-02-08 13:11:00,53.0,39.0,29.76,ESE,121,2.0,-999.0,58,-99.99,,,-99.99,,2013-02-08 21:11:00,
2013-02-08 13:21:00,52.0,40.0,29.75,NE,42,2.0,-999.0,63,-99.99,,,-99.99,,2013-02-08 21:21:00,
2013-02-08 13:32:00,51.0,37.0,29.75,SE,132,2.0,-999.0,58,-99.99,,,-99.99,,2013-02-08 21:32:00,
2013-02-08 13:41:00,51.0,37.0,29.75,SE,132,2.0,-999.0,58,-99.99,,,-99.99,,2013-02-08 21:41:00,
2013-02-08 13:52:00,51.0,36.0,29.74,SE,129,2.0,-999.0,57,-99.99,,,-99.99,,2013-02-08 21:52:00,
2013-02-08 14:01:00,51.0,36.0,29.74,SE,129,2.0,-999.0,57,-99.99,,,-99.99,,2013-02-08 22:01:00,
2013-02-08 14:11:00,51.0,36.0,29.74,SE,129,2.0,-999.0,57,-99.99,,,-99.99,,2013-02-08 22:11:00,
2013-02-08 14:21:00,52.0,37.0,29.74,ESE,117,1.0,-999.0,56,-99.99,,,-99.99,,2013-02-08 22:21:00,
2013-02-08 14:31:00,52.0,37.0,29.74,NE,38,1.0,-999.0,56,-99.99,,,-99.99,,2013-02-08 22:31:00,
2013-02-08 14:42:00,52.0,37.0,29.74,NE,38,1.0,-999.0,56,-99.99,,,-99.99,,2013-02-08 22:42:00,
2013-02-08 14:51:00,52.0,36.0,29.74,East,82,1.0,-999.0,55,-99.99,,,-99.99,,2013-02-08 22:51:00,
2013-02-08 15:01:00,53.0,37.0,29.73,ESE,107,1.0,-999.0,55,-99.99,,,-99.99,,2013-02-08 23:01:00,
2013-02-08 15:11:00,53.0,37.0,29.73,ESE,107,1.0,-999.0,55,-99.99,,,-99.99,,2013-02-08 23:11:00,
2013-02-08 15:21:00,54.0,38.0,29.74,East,99,2.0,-999.0,54,-99.99,,,-99.99,,2013-02-08 23:21:00,
2013-02-08 15:31:00,52.0,38.0,29.73,NNE,33,1.0,-999.0,58,-99.99,,,-99.99,,2013-02-08 23:31:00,
2013-02-08 15:41:00,52.0,38.0,29.73,NNE,33,1.0,-999.0,58,-99.99,,,-99.99,,2013-02-08 23:41:00,
2013-02-08 15:52:00,52.0,38.0,29.73,NE,49,1.0,-999.0,59,-99.99,,,-99.99,,2013-02-08 23:52:00,
2013-02-08 16:01:00,51.0,38.0,29.73,ESE,102,0.0,-999.0,62,-99.99,,,-99.99,,2013-02-09 00:01:00,
2013-02-08 16:11:00,51.0,38.0,29.73,ESE,102,0.0,-999.0,62,-99.99,,,-99.99,,2013-02-09 00:11:00,
2013-02-08 16:21:00,49.0,39.0,29.74,East,79,1.0,-999.0,69,-99.99,,,-99.99,,2013-02-09 00:21:00,
2013-02-08 16:31:00,47.0,41.0,29.74,ENE,75,0.0,-999.0,78,-99.99,,,-99.99,,2013-02-09 00:31:00,
2013-02-08 16:42:00,47.0,41.0,29.74,ENE,75,0.0,-999.0,78,-99.99,,,-99.99,,2013-02-09 00:42:00,
2013-02-08 16:52:00,47.0,41.0,29.74,ENE,75,0.0,-999.0,78,-99.99,,,-99.99,,2013-02-09 00:52:00,
2013-02-08 17:01:00,47.0,41.0,29.74,ENE,75,0.0,-999.0,78,-99.99,,,-99.99,,2013-02-09 01:01:00,
2013-02-08 17:21:00,46.0,40.0,29.75,NE,34,0.0,-999.0,79,-99.99,,,-99.99,,2013-02-09 01:21:00,
2013-02-08 17:31:00,45.0,40.0,29.75,NW,323,0.0,-999.0,81,-99.99,,,-99.99,,2013-02-09 01:31:00,
2013-02-08 17:41:00,45.0,40.0,29.75,NW,323,0.0,-999.0,81,-99.99,,,-99.99,,2013-02-09 01:41:00,
2013-02-08 17:52:00,45.0,40.0,29.75,NW,323,0.0,-999.0,81,-99.99,,,-99.99,,2013-02-09 01:52:00,
2013-02-08 18:01:00,44.0,39.0,29.75,NW,322,0.0,-999.0,81,-99.99,,,-99.99,,2013-02-09 02:01:00,
2013-02-08 18:11:00,44.0,39.0,29.75,NW,322,0.0,-999.0,82,-99.99,,,-99.99,,2013-02-09 02:11:00,
2013-02-08 18:21:00,44.0,39.0,29.75,NW,322,0.0,-999.0,82,-99.99,,,-99.99,,2013-02-09 02:21:00,
2013-02-08 18:32:00,43.0,38.0,29.75,NW,322,0.0,-999.0,81,-99.99,,,-99.99,,2013-02-09 02:32:00,
2013-02-08 18:41:00,43.0,38.0,29.75,NW,322,0.0,-999.0,81,-99.99,,,-99.99,,2013-02-09 02:41:00,
2013-02-08 18:52:00,42.0,37.0,29.76,NW,322,0.0,-999.0,82,-99.99,,,-99.99,,2013-02-09 02:52:00,
2013-02-08 19:01:00,42.0,37.0,29.76,NW,322,0.0,-999.0,82,-99.99,,,-99.99,,2013-02-09 03:01:00,
2013-02-08 19:11:00,42.0,37.0,29.76,NW,322,0.0,-999.0,82,-99.99,,,-99.99,,2013-02-09 03:11:00,
2013-02-08 19:21:00,41.0,37.0,29.77,NW,322,0.0,-999.0,84,-99.99,,,-99.99,,2013-02-09 03:21:00,
2013-02-08 19:32:00,41.0,37.0,29.77,NW,322,0.0,-999.0,84,-99.99,,,-99.99,,2013-02-09 03:32:00,
2013-02-08 19:41:00,41.0,37.0,29.77,NW,322,0.0,-999.0,84,-99.99,,,-99.99,,2013-02-09 03:41:00,
2013-02-08 19:51:00,40.0,36.0,29.77,NW,322,0.0,-999.0,85,-99.99,,,-99.99,,2013-02-09 03:51:00,
2013-02-08 20:02:00,40.0,36.0,29.77,NW,322,0.0,-999.0,87,-99.99,,,-99.99,,2013-02-09 04:02:00,
2013-02-08 20:11:00,40.0,36.0,29.78,NW,322,0.0,-999.0,87,-99.99,,,-99.99,,2013-02-09 04:11:00,
2013-02-08 20:22:00,40.0,36.0,29.78,NW,322,0.0,-999.0,87,-99.99,,,-99.99,,2013-02-09 04:22:00,
2013-02-08 20:31:00,39.0,35.0,29.77,NW,322,0.0,-999.0,87,-99.99,,,-99.99,,2013-02-09 04:31:00,
2013-02-08 20:42:00,39.0,35.0,29.77,NW,322,0.0,-999.0,87,-99.99,,,-99.99,,2013-02-09 04:42:00,
2013-02-08 20:51:00,39.0,35.0,29.77,NW,322,0.0,-999.0,87,-99.99,,,-99.99,,2013-02-09 04:51:00,
2013-02-08 21:02:00,39.0,36.0,29.78,NW,322,0.0,-999.0,88,-99.99,,,-99.99,,2013-02-09 05:02:00,
2013-02-08 21:12:00,39.0,36.0,29.78,NW,322,0.0,-999.0,88,-99.99,,,-99.99,,2013-02-09 05:12:00,
2013-02-08 21:22:00,39.0,36.0,29.78,NW,322,0.0,-999.0,88,-99.99,,,-99.99,,2013-02-09 05:22:00,
2013-02-08 21:31:00,38.0,35.0,29.78,NW,322,0.0,-999.0,89,-99.99,,,-99.99,,2013-02-09 05:31:00,
2013-02-08 21:42:00,38.0,35.0,29.78,NW,322,0.0,-999.0,89,-99.99,,,-99.99,,2013-02-09 05:42:00,
2013-02-08 21:52:00,38.0,35.0,29.77,NW,322,0.0,-999.0,89,-99.99,,,-99.99,,2013-02-09 05:52:00,
2013-02-08 22:01:00,38.0,35.0,29.78,NW,322,0.0,-999.0,89,-99.99,,,-99.99,,2013-02-09 06:01:00,
2013-02-08 22:11:00,38.0,35.0,29.78,NW,322,0.0,-999.0,89,-99.99,,,-99.99,,2013-02-09 06:11:00,
2013-02-08 22:21:00,38.0,35.0,29.79,NW,322,0.0,-999.0,90,-99.99,,,-99.99,,2013-02-09 06:21:00,
2013-02-08 22:31:00,38.0,35.0,29.79,NW,322,0.0,-999.0,90,-99.99,,,-99.99,,2013-02-09 06:31:00,
2013-02-08 22:41:00,38.0,35.0,29.79,NW,322,0.0,-999.0,90,-99.99,,,-99.99,,2013-02-09 06:41:00,
2013-02-08 22:51:00,38.0,35.0,29.80,NW,310,0.0,-999.0,90,-99.99,,,-99.99,,2013-02-09 06:51:00,
2013-02-08 23:01:00,38.0,35.0,29.80,NW,310,0.0,-999.0,90,-99.99,,,-99.99,,2013-02-09 07:01:00,
2013-02-08 23:11:00,38.0,35.0,29.80,NW,310,0.0,-999.0,90,-99.99,,,-99.99,,2013-02-09 07:11:00,
2013-02-08 23:21:00,38.0,35.0,29.80,NW,310,0.0,-999.0,90,-99.99,,,-99.99,,2013-02-09 07:21:00,
2013-02-08 23:31:00,38.0,35.0,29.80,NW,310,0.0,-999.0,89,-99.99,,,-99.99,,2013-02-09 07:31:00,
2013-02-08 23:42:00,38.0,35.0,29.80,NW,310,0.0,-999.0,89,-99.99,,,-99.99,,2013-02-09 07:42:00,
2013-02-08 23:51:00,37.0,34.0,29.81,NW,310,0.0,-999.0,89,-99.99,,,-99.99,,2013-02-09 07:51:00,